TimeCDT,TemperatureF,Dew PointF,Humidity,Sea Level PressureIn,VisibilityMPH,Wind Direction,Wind SpeedMPH,Gust SpeedMPH,PrecipitationIn,Events,Conditions,WindDirDegrees,DateUTC
12:15 AM,48.2,46.4,93,30.10,10.0,ENE,9.2,-,N/A,,Partly Cloudy,60,2012-03-23 05:15:00
12:35 AM,48.2,44.6,87,30.10,10.0,ENE,10.4,-,N/A,,Clear,70,2012-03-23 05:35:00
12:55 AM,46.4,44.6,93,30.10,10.0,ENE,6.9,-,N/A,,Partly Cloudy,70,2012-03-23 05:55:00
1:15 AM,46.4,44.6,93,30.10,10.0,ENE,9.2,-,N/A,,Partly Cloudy,70,2012-03-23 06:15:00
1:35 AM,46.4,44.6,93,30.09,10.0,ENE,8.1,-,N/A,,Mostly Cloudy,70,2012-03-23 06:35:00
1:55 AM,46.4,44.6,93,30.09,10.0,ENE,9.2,-,N/A,,Overcast,70,2012-03-23 06:55:00
2:15 AM,46.4,44.6,93,30.08,10.0,ENE,9.2,-,N/A,,Overcast,60,2012-03-23 07:15:00
2:35 AM,46.4,44.6,93,30.08,10.0,ENE,8.1,-,N/A,,Mostly Cloudy,70,2012-03-23 07:35:00
2:55 AM,48.2,46.4,93,30.08,10.0,East,6.9,-,0.01,,Mostly Cloudy,80,2012-03-23 07:55:00
3:15 AM,48.2,46.4,93,30.08,10.0,East,9.2,-,N/A,,Overcast,80,2012-03-23 08:15:00
3:35 AM,46.4,44.6,93,30.07,9.0,NNE,4.6,-,N/A,,Overcast,20,2012-03-23 08:35:00
3:55 AM,48.2,46.4,93,30.07,10.0,ENE,4.6,-,0.01,,Mostly Cloudy,60,2012-03-23 08:55:00
4:15 AM,48.2,46.4,93,30.07,10.0,ENE,3.5,-,N/A,,Overcast,70,2012-03-23 09:15:00
4:35 AM,46.4,46.4,100,30.07,10.0,ENE,4.6,-,N/A,,Overcast,70,2012-03-23 09:35:00
4:55 AM,46.4,46.4,100,30.06,9.0,ENE,4.6,-,N/A,,Mostly Cloudy,70,2012-03-23 09:55:00
5:15 AM,46.4,46.4,100,30.06,9.0,NE,5.8,-,N/A,,Partly Cloudy,50,2012-03-23 10:15:00
5:35 AM,46.4,46.4,100,30.06,8.0,NE,4.6,-,N/A,,Partly Cloudy,50,2012-03-23 10:35:00
5:55 AM,46.4,44.6,93,30.06,7.0,NNE,3.5,-,N/A,,Mostly Cloudy,20,2012-03-23 10:55:00
6:15 AM,46.4,46.4,100,30.06,7.0,NE,4.6,-,N/A,,Mostly Cloudy,40,2012-03-23 11:15:00
6:35 AM,46.4,46.4,100,30.06,7.0,East,3.5,-,N/A,,Mostly Cloudy,90,2012-03-23 11:35:00
6:55 AM,46.4,46.4,100,30.06,5.0,Calm,Calm,-,N/A,,Overcast,0,2012-03-23 11:55:00
7:15 AM,46.4,46.4,100,30.06,5.0,NE,3.5,-,N/A,,Overcast,50,2012-03-23 12:15:00
7:35 AM,46.4,46.4,100,30.07,2.0,East,3.5,-,N/A,,Overcast,90,2012-03-23 12:35:00
7:55 AM,48.2,46.4,93,30.07,1.2,Calm,Calm,-,N/A,,Overcast,0,2012-03-23 12:55:00
8:15 AM,46.4,44.6,93,30.06,0.8,Calm,Calm,-,0.01,,Overcast,0,2012-03-23 13:15:00
8:35 AM,48.2,48.2,100,30.06,2.0,NE,4.6,-,0.01,,Overcast,40,2012-03-23 13:35:00
8:55 AM,48.2,48.2,100,30.06,2.5,ENE,5.8,-,0.01,,Overcast,60,2012-03-23 13:55:00
9:15 AM,48.2,48.2,100,30.06,2.0,ENE,6.9,-,N/A,,Overcast,70,2012-03-23 14:15:00
9:35 AM,50.0,48.2,94,30.05,2.0,ENE,6.9,-,N/A,,Overcast,70,2012-03-23 14:35:00
9:55 AM,50.0,50.0,100,30.05,2.5,ENE,5.8,-,N/A,,Overcast,70,2012-03-23 14:55:00
10:15 AM,51.8,50.0,94,30.05,3.0,ENE,6.9,-,0.01,,Overcast,70,2012-03-23 15:15:00
10:35 AM,51.8,50.0,94,30.05,3.0,ENE,6.9,-,0.01,,Overcast,60,2012-03-23 15:35:00
10:55 AM,50.0,48.2,94,30.05,3.0,East,4.6,-,0.01,,Overcast,100,2012-03-23 15:55:00
11:15 AM,50.0,50.0,100,30.04,2.5,ENE,6.9,-,N/A,,Overcast,70,2012-03-23 16:15:00
11:35 AM,50.0,48.2,94,30.04,1.5,ENE,9.2,-,N/A,,Overcast,70,2012-03-23 16:35:00
12:15 PM,50.0,48.2,94,30.02,1.0,ENE,9.2,-,N/A,,Overcast,70,2012-03-23 17:15:00
12:35 PM,50.0,50.0,100,30.02,1.2,ENE,10.4,-,N/A,,Overcast,70,2012-03-23 17:35:00
12:55 PM,50.0,48.2,94,30.00,1.2,ENE,11.5,-,N/A,,Overcast,70,2012-03-23 17:55:00
1:15 PM,51.8,50.0,94,30.01,3.0,East,6.9,-,N/A,,Overcast,90,2012-03-23 18:15:00
1:35 PM,48.2,46.4,93,30.00,1.0,ENE,9.2,-,N/A,,Overcast,70,2012-03-23 18:35:00
1:55 PM,48.2,46.4,93,29.99,0.2,ENE,8.1,-,N/A,,Overcast,70,2012-03-23 18:55:00
2:15 PM,50.0,48.2,94,29.98,3.0,ENE,9.2,-,N/A,,Mostly Cloudy,60,2012-03-23 19:15:00
2:35 PM,51.8,51.8,100,29.97,6.0,East,4.6,-,N/A,,Overcast,90,2012-03-23 19:35:00
2:55 PM,50.0,50.0,100,29.96,6.0,East,5.8,-,N/A,,Overcast,80,2012-03-23 19:55:00
3:15 PM,51.8,50.0,94,29.95,7.0,NNE,6.9,-,N/A,,Overcast,30,2012-03-23 20:15:00
3:35 PM,51.8,48.2,88,29.95,7.0,NE,6.9,-,N/A,,Mostly Cloudy,40,2012-03-23 20:35:00
3:55 PM,51.8,50.0,94,29.94,7.0,NE,6.9,-,N/A,,Overcast,40,2012-03-23 20:55:00
4:15 PM,51.8,50.0,94,29.94,9.0,East,8.1,-,N/A,,Overcast,80,2012-03-23 21:15:00
4:35 PM,48.2,46.4,93,29.95,8.0,East,6.9,-,N/A,,Overcast,80,2012-03-23 21:35:00
4:55 PM,50.0,48.2,94,29.95,10.0,NE,6.9,-,N/A,,Overcast,40,2012-03-23 21:55:00
5:15 PM,48.2,48.2,100,29.94,8.0,NNE,9.2,-,N/A,,Overcast,30,2012-03-23 22:15:00
5:35 PM,48.2,46.4,93,29.94,5.0,NNE,11.5,-,N/A,,Overcast,30,2012-03-23 22:35:00
5:55 PM,48.2,48.2,100,29.94,3.0,NE,10.4,-,N/A,,Overcast,50,2012-03-23 22:55:00
6:15 PM,48.2,48.2,100,29.95,3.0,ENE,11.5,-,N/A,,Overcast,60,2012-03-23 23:15:00
6:35 PM,48.2,46.4,93,29.95,2.0,NE,13.8,17.3,N/A,,Overcast,50,2012-03-23 23:35:00
6:55 PM,48.2,48.2,100,29.95,0.2,NE,17.3,23.0,N/A,,Overcast,50,2012-03-23 23:55:00
7:15 PM,48.2,46.4,93,29.94,0.2,NE,13.8,-,N/A,,Overcast,50,2012-03-24 00:15:00
7:35 PM,48.2,46.4,93,29.94,0.2,NE,11.5,-,N/A,,Overcast,50,2012-03-24 00:35:00
7:55 PM,48.2,46.4,93,29.94,0.5,NE,12.7,18.4,N/A,,Overcast,50,2012-03-24 00:55:00
8:15 PM,48.2,46.4,93,29.94,0.5,NE,11.5,18.4,N/A,,Overcast,50,2012-03-24 01:15:00
8:35 PM,46.4,44.6,93,29.94,0.8,ENE,13.8,20.7,N/A,,Overcast,60,2012-03-24 01:35:00
8:55 PM,46.4,46.4,100,29.94,1.0,NE,11.5,-,N/A,,Overcast,50,2012-03-24 01:55:00
9:15 PM,46.4,44.6,93,29.93,1.5,NE,10.4,-,N/A,,Overcast,50,2012-03-24 02:15:00
9:35 PM,46.4,46.4,100,29.93,3.0,ENE,9.2,-,N/A,,Overcast,60,2012-03-24 02:35:00
9:55 PM,46.4,46.4,100,29.93,3.0,NE,6.9,-,N/A,,Overcast,40,2012-03-24 02:55:00
10:15 PM,46.4,46.4,100,29.93,3.0,NE,10.4,-,N/A,,Overcast,50,2012-03-24 03:15:00
10:35 PM,46.4,44.6,93,29.93,6.0,NE,9.2,-,N/A,,Overcast,50,2012-03-24 03:35:00
10:55 PM,46.4,44.6,93,29.92,9.0,NE,13.8,-,0.01,,Overcast,40,2012-03-24 03:55:00
11:15 PM,46.4,46.4,100,29.91,10.0,NE,11.5,16.1,N/A,,Overcast,40,2012-03-24 04:15:00
11:35 PM,46.4,44.6,93,29.91,10.0,NE,12.7,-,N/A,,Overcast,50,2012-03-24 04:35:00
11:55 PM,46.4,44.6,93,29.91,10.0,NE,6.9,-,N/A,,Overcast,40,2012-03-24 04:55:00